Time,TemperatureF,DewpointF,PressureIn,WindDirection,WindDirectionDegrees,WindSpeedMPH,WindSpeedGustMPH,Humidity,HourlyPrecipIn,Conditions,Clouds,dailyrainin,SoftwareType,DateUTC
2013-03-13 00:02:00,52.3,48.2,30.09,NE,45,3.0,11.0,86,0.00,,,0.00,Wunderground v.1.15,2013-03-13 07:02:00,
2013-03-13 00:11:00,53.6,47.9,30.09,East,79,4.0,11.0,81,0.00,,,0.00,Wunderground v.1.15,2013-03-13 07:11:00,
2013-03-13 00:17:00,53.9,47.5,30.09,East,82,3.0,11.0,79,0.00,,,0.00,Wunderground v.1.15,2013-03-13 07:17:00,
2013-03-13 00:27:00,54.7,46.9,30.08,NE,44,4.0,11.0,75,0.00,,,0.00,Wunderground v.1.15,2013-03-13 07:27:00,
2013-03-13 00:37:00,55.0,46.5,30.08,NE,37,5.0,11.0,73,0.00,,,0.00,Wunderground v.1.15,2013-03-13 07:37:00,
2013-03-13 00:46:00,55.7,45.7,30.08,NE,34,4.0,4.0,69,0.00,,,0.00,Wunderground v.1.15,2013-03-13 07:46:00,
2013-03-13 00:52:00,56.3,45.9,30.08,NNE,17,4.0,6.0,68,0.00,,,0.00,Wunderground v.1.15,2013-03-13 07:52:00,
2013-03-13 01:01:00,57.6,45.1,30.08,NE,41,5.0,11.0,63,0.00,,,0.00,Wunderground v.1.15,2013-03-13 08:01:00,
2013-03-13 01:12:00,58.1,44.7,30.08,NE,45,4.0,11.0,61,0.00,,,0.00,Wunderground v.1.15,2013-03-13 08:12:00,
2013-03-13 01:21:00,58.5,44.2,30.07,NNE,30,6.0,6.0,59,0.00,,,0.00,Wunderground v.1.15,2013-03-13 08:21:00,
2013-03-13 01:27:00,58.6,44.3,30.07,NNE,24,5.0,5.0,59,0.00,,,0.00,Wunderground v.1.15,2013-03-13 08:27:00,
2013-03-13 01:36:00,58.4,43.7,30.07,NE,39,6.0,11.0,58,0.00,,,0.00,Wunderground v.1.15,2013-03-13 08:36:00,
2013-03-13 01:42:00,58.8,43.6,30.07,NE,37,7.0,11.0,57,0.00,,,0.00,Wunderground v.1.15,2013-03-13 08:42:00,
2013-03-13 01:51:00,58.8,43.1,30.08,NNE,20,5.0,11.0,56,0.00,,,0.00,Wunderground v.1.15,2013-03-13 08:51:00,
2013-03-13 01:57:00,58.7,43.0,30.08,NE,43,5.0,5.0,56,0.00,,,0.00,Wunderground v.1.15,2013-03-13 08:57:00,
2013-03-13 02:07:00,59.0,42.8,30.08,NNE,30,4.0,11.0,55,0.00,,,0.00,Wunderground v.1.15,2013-03-13 09:07:00,
2013-03-13 02:16:00,58.9,42.8,30.08,NNE,33,4.0,11.0,55,0.00,,,0.00,Wunderground v.1.15,2013-03-13 09:16:00,
2013-03-13 02:22:00,58.8,42.7,30.08,ENE,66,3.0,11.0,55,0.00,,,0.00,Wunderground v.1.15,2013-03-13 09:22:00,
2013-03-13 02:31:00,56.4,42.2,30.08,ENE,73,3.0,11.0,59,0.00,,,0.00,Wunderground v.1.15,2013-03-13 09:31:00,
2013-03-13 02:42:00,54.4,43.3,30.08,ESE,110,3.0,11.0,66,0.00,,,0.00,Wunderground v.1.15,2013-03-13 09:42:00,
2013-03-13 02:51:00,53.1,43.2,30.08,ESE,104,2.0,11.0,69,0.00,,,0.00,Wunderground v.1.15,2013-03-13 09:51:00,
2013-03-13 03:02:00,52.4,43.3,30.08,ESE,120,2.0,11.0,71,0.00,,,0.00,Wunderground v.1.15,2013-03-13 10:02:00,
2013-03-13 03:11:00,54.5,43.8,30.08,NNE,33,2.0,11.0,67,0.00,,,0.00,Wunderground v.1.15,2013-03-13 10:11:00,
2013-03-13 03:17:00,56.3,42.6,30.08,ENE,74,4.0,4.0,60,0.00,,,0.00,Wunderground v.1.15,2013-03-13 10:17:00,
2013-03-13 03:26:00,54.1,42.6,30.08,NE,49,3.0,11.0,65,0.00,,,0.00,Wunderground v.1.15,2013-03-13 10:26:00,
2013-03-13 03:32:00,54.5,42.6,30.08,NE,45,3.0,11.0,64,0.00,,,0.00,Wunderground v.1.15,2013-03-13 10:32:00,
2013-03-13 03:41:00,54.8,42.4,30.07,NE,47,4.0,11.0,63,0.00,,,0.00,Wunderground v.1.15,2013-03-13 10:41:00,
2013-03-13 03:47:00,55.2,42.4,30.07,NE,56,4.0,4.0,62,0.00,,,0.00,Wunderground v.1.15,2013-03-13 10:47:00,
2013-03-13 03:56:00,55.2,42.0,30.07,ENE,70,2.0,11.0,61,0.00,,,0.00,Wunderground v.1.15,2013-03-13 10:56:00,
2013-03-13 04:02:00,56.1,42.0,30.07,NE,51,3.0,11.0,59,0.00,,,0.00,Wunderground v.1.15,2013-03-13 11:02:00,
2013-03-13 04:11:00,56.7,41.6,30.07,NNE,33,4.0,11.0,57,0.00,,,0.00,Wunderground v.1.15,2013-03-13 11:11:00,
2013-03-13 04:21:00,56.7,41.2,30.07,NE,44,6.0,11.0,56,0.00,,,0.00,Wunderground v.1.15,2013-03-13 11:21:00,
2013-03-13 04:31:00,56.7,41.2,30.07,NNE,30,6.0,11.0,56,0.00,,,0.00,Wunderground v.1.15,2013-03-13 11:31:00,
2013-03-13 04:36:00,57.0,41.0,30.07,NE,43,6.0,11.0,55,0.00,,,0.00,Wunderground v.1.15,2013-03-13 11:36:00,
2013-03-13 04:46:00,57.2,40.7,30.07,NNE,15,6.0,11.0,54,0.00,,,0.00,Wunderground v.1.15,2013-03-13 11:46:00,
2013-03-13 04:52:00,57.1,40.6,30.07,NE,40,6.0,11.0,54,0.00,,,0.00,Wunderground v.1.15,2013-03-13 11:52:00,
2013-03-13 05:01:00,57.4,40.4,30.07,NNE,25,6.0,11.0,53,0.00,,,0.00,Wunderground v.1.15,2013-03-13 12:01:00,
2013-03-13 05:11:00,57.3,39.8,30.08,NE,53,5.0,11.0,52,0.00,,,0.00,Wunderground v.1.15,2013-03-13 12:11:00,
2013-03-13 05:16:00,56.9,40.4,30.08,ENE,61,5.0,5.0,54,0.00,,,0.00,Wunderground v.1.15,2013-03-13 12:16:00,
2013-03-13 05:26:00,56.1,40.1,30.08,NNE,30,4.0,11.0,55,0.00,,,0.00,Wunderground v.1.15,2013-03-13 12:26:00,
2013-03-13 05:31:00,56.2,39.8,30.08,NE,43,5.0,11.0,54,0.00,,,0.00,Wunderground v.1.15,2013-03-13 12:31:00,
2013-03-13 05:41:00,56.1,40.1,30.08,NE,51,4.0,11.0,55,0.00,,,0.00,Wunderground v.1.15,2013-03-13 12:41:00,
2013-03-13 05:46:00,55.7,40.2,30.08,NE,44,4.0,11.0,56,0.00,,,0.00,Wunderground v.1.15,2013-03-13 12:46:00,
2013-03-13 05:56:00,55.1,40.1,30.08,NE,56,5.0,11.0,57,0.00,,,0.00,Wunderground v.1.15,2013-03-13 12:56:00,
2013-03-13 06:07:00,55.6,40.1,30.08,NE,39,5.0,11.0,56,0.00,,,0.00,Wunderground v.1.15,2013-03-13 13:07:00,
2013-03-13 06:16:00,56.1,39.7,30.08,NE,38,5.0,5.0,54,0.00,,,0.00,Wunderground v.1.15,2013-03-13 13:16:00,
2013-03-13 06:26:00,56.1,39.7,30.08,NE,38,4.0,4.0,54,0.00,,,0.00,Wunderground v.1.15,2013-03-13 13:26:00,
2013-03-13 06:36:00,56.0,39.6,30.09,ENE,61,4.0,11.0,54,0.00,,,0.00,Wunderground v.1.15,2013-03-13 13:36:00,
2013-03-13 06:41:00,56.0,39.1,30.08,NE,39,4.0,11.0,53,0.00,,,0.00,Wunderground v.1.15,2013-03-13 13:41:00,
2013-03-13 06:51:00,54.2,38.8,30.09,NE,55,3.0,11.0,56,0.00,,,0.00,Wunderground v.1.15,2013-03-13 13:51:00,
2013-03-13 06:56:00,53.4,39.9,30.09,NE,43,1.0,11.0,60,0.00,,,0.00,Wunderground v.1.15,2013-03-13 13:56:00,
2013-03-13 07:06:00,54.7,39.3,30.09,NE,51,2.0,11.0,56,0.00,,,0.00,Wunderground v.1.15,2013-03-13 14:06:00,
2013-03-13 07:11:00,54.9,39.0,30.09,NE,55,3.0,11.0,55,0.00,,,0.00,Wunderground v.1.15,2013-03-13 14:11:00,
2013-03-13 07:21:00,55.0,39.1,30.09,NE,43,4.0,11.0,55,0.00,,,0.00,Wunderground v.1.15,2013-03-13 14:21:00,
2013-03-13 07:26:00,55.3,38.9,30.09,NE,54,4.0,11.0,54,0.00,,,0.00,Wunderground v.1.15,2013-03-13 14:26:00,
2013-03-13 07:36:00,56.1,39.2,30.10,NNE,33,4.0,4.0,53,0.00,,,0.00,Wunderground v.1.15,2013-03-13 14:36:00,
2013-03-13 07:46:00,55.2,40.7,30.10,ESE,117,3.0,3.0,58,0.00,,,0.00,Wunderground v.1.15,2013-03-13 14:46:00,
2013-03-13 07:51:00,54.3,41.1,30.10,ESE,107,2.0,11.0,61,0.00,,,0.00,Wunderground v.1.15,2013-03-13 14:51:00,
2013-03-13 07:56:00,54.7,41.5,30.10,SE,143,1.0,11.0,61,0.00,,,0.00,Wunderground v.1.15,2013-03-13 14:56:00,
2013-03-13 08:07:00,55.6,41.5,30.10,SE,125,2.0,11.0,59,0.00,,,0.00,Wunderground v.1.15,2013-03-13 15:07:00,
2013-03-13 08:12:00,55.6,41.5,30.10,ESE,108,3.0,11.0,59,0.00,,,0.00,Wunderground v.1.15,2013-03-13 15:12:00,
2013-03-13 08:22:00,58.2,40.6,30.10,ENE,60,3.0,11.0,52,0.00,,,0.00,Wunderground v.1.15,2013-03-13 15:22:00,
2013-03-13 08:32:00,60.3,40.0,30.10,NE,39,3.0,11.0,47,0.00,,,0.00,Wunderground v.1.15,2013-03-13 15:32:00,
2013-03-13 08:37:00,60.8,40.4,30.10,NNE,26,4.0,11.0,47,0.00,,,0.00,Wunderground v.1.15,2013-03-13 15:37:00,
2013-03-13 08:47:00,61.7,40.1,30.10,NE,44,5.0,11.0,45,0.00,,,0.00,Wunderground v.1.15,2013-03-13 15:47:00,
2013-03-13 08:57:00,62.8,40.0,30.10,NE,44,5.0,5.0,43,0.00,,,0.00,Wunderground v.1.15,2013-03-13 15:57:00,
2013-03-13 09:02:00,63.3,39.8,30.10,NE,36,5.0,6.0,42,0.00,,,0.00,Wunderground v.1.15,2013-03-13 16:02:00,
2013-03-13 09:12:00,65.2,39.6,30.10,NE,44,4.0,11.0,39,0.00,,,0.00,Wunderground v.1.15,2013-03-13 16:12:00,
2013-03-13 09:22:00,66.4,40.0,30.10,NNE,22,4.0,11.0,38,0.00,,,0.00,Wunderground v.1.15,2013-03-13 16:22:00,
2013-03-13 09:27:00,67.1,39.2,30.10,NE,43,4.0,11.0,36,0.00,,,0.00,Wunderground v.1.15,2013-03-13 16:27:00,
2013-03-13 09:37:00,67.9,39.2,30.10,NNW,346,6.0,11.0,35,0.00,,,0.00,Wunderground v.1.15,2013-03-13 16:37:00,
2013-03-13 09:42:00,68.3,39.6,30.10,NE,39,5.0,11.0,35,0.00,,,0.00,Wunderground v.1.15,2013-03-13 16:42:00,
2013-03-13 09:52:00,69.3,39.7,30.10,NE,45,5.0,8.0,34,0.00,,,0.00,Wunderground v.1.15,2013-03-13 16:52:00,
2013-03-13 10:02:00,70.9,40.3,30.10,NE,56,4.0,11.0,33,0.00,,,0.00,Wunderground v.1.15,2013-03-13 17:02:00,
2013-03-13 10:12:00,72.5,41.0,30.10,NE,51,4.0,11.0,32,0.00,,,0.00,Wunderground v.1.15,2013-03-13 17:12:00,
2013-03-13 10:22:00,73.9,41.3,30.09,NE,42,4.0,11.0,31,0.00,,,0.00,Wunderground v.1.15,2013-03-13 17:22:00,
2013-03-13 10:27:00,74.6,41.1,30.09,NE,56,4.0,4.0,30,0.00,,,0.00,Wunderground v.1.15,2013-03-13 17:27:00,
2013-03-13 10:37:00,75.6,41.1,30.09,ENE,61,4.0,4.0,29,0.00,,,0.00,Wunderground v.1.15,2013-03-13 17:37:00,
2013-03-13 10:42:00,76.4,40.9,30.09,NE,53,4.0,5.0,28,0.00,,,0.00,Wunderground v.1.15,2013-03-13 17:42:00,
2013-03-13 10:47:00,77.2,41.6,30.09,NE,36,3.0,11.0,28,0.00,,,0.00,Wunderground v.1.15,2013-03-13 17:47:00,
2013-03-13 10:57:00,78.9,41.1,30.09,NE,56,3.0,11.0,26,0.00,,,0.00,Wunderground v.1.15,2013-03-13 17:57:00,
2013-03-13 11:02:00,79.3,41.4,30.09,ENE,77,3.0,11.0,26,0.00,,,0.00,Wunderground v.1.15,2013-03-13 18:02:00,
2013-03-13 11:12:00,80.9,40.7,30.08,East,79,3.0,11.0,24,0.00,,,0.00,Wunderground v.1.15,2013-03-13 18:12:00,
2013-03-13 11:17:00,81.9,42.6,30.08,ESE,107,2.0,11.0,25,0.00,,,0.00,Wunderground v.1.15,2013-03-13 18:17:00,
2013-03-13 11:27:00,84.1,43.4,30.07,West,274,2.0,2.0,24,0.00,,,0.00,Wunderground v.1.15,2013-03-13 18:27:00,
2013-03-13 11:37:00,87.3,41.3,30.07,ESE,103,1.0,11.0,20,0.00,,,0.00,Wunderground v.1.15,2013-03-13 18:37:00,
2013-03-13 11:47:00,86.9,42.3,30.07,SSW,198,3.0,11.0,21,0.00,,,0.00,Wunderground v.1.15,2013-03-13 18:47:00,
2013-03-13 11:52:00,85.9,46.0,30.07,SW,233,5.0,11.0,25,0.00,,,0.00,Wunderground v.1.15,2013-03-13 18:52:00,
2013-03-13 12:02:00,82.6,52.2,30.06,West,281,10.0,11.0,35,0.00,,,0.00,Wunderground v.1.15,2013-03-13 19:02:00,
2013-03-13 12:07:00,81.7,53.6,30.06,NW,306,9.0,9.0,38,0.00,,,0.00,Wunderground v.1.15,2013-03-13 19:07:00,
2013-03-13 12:17:00,79.7,53.2,30.06,West,259,9.0,11.0,40,0.00,,,0.00,Wunderground v.1.15,2013-03-13 19:17:00,
2013-03-13 12:22:00,79.0,51.9,30.06,WSW,253,9.0,11.0,39,0.00,,,0.00,Wunderground v.1.15,2013-03-13 19:22:00,
2013-03-13 12:32:00,79.0,51.2,30.06,SSW,207,8.0,11.0,38,0.00,,,0.00,Wunderground v.1.15,2013-03-13 19:32:00,
2013-03-13 12:37:00,78.8,53.8,30.06,WSW,252,8.0,11.0,42,0.00,,,0.00,Wunderground v.1.15,2013-03-13 19:37:00,
2013-03-13 12:47:00,77.9,52.3,30.06,SW,233,10.0,12.0,41,0.00,,,0.00,Wunderground v.1.15,2013-03-13 19:47:00,
2013-03-13 12:57:00,76.7,50.6,30.05,West,259,12.0,12.0,40,0.00,,,0.00,Wunderground v.1.15,2013-03-13 19:57:00,
2013-03-13 13:07:00,77.3,48.3,30.05,SW,231,10.0,11.0,36,0.00,,,0.00,Wunderground v.1.15,2013-03-13 20:07:00,
2013-03-13 13:12:00,77.4,47.6,30.05,West,280,10.0,11.0,35,0.00,,,0.00,Wunderground v.1.15,2013-03-13 20:12:00,
2013-03-13 13:22:00,78.1,48.2,30.04,West,266,10.0,15.0,35,0.00,,,0.00,Wunderground v.1.15,2013-03-13 20:22:00,
2013-03-13 13:27:00,77.4,44.4,30.04,West,269,12.0,15.0,31,0.00,,,0.00,Wunderground v.1.15,2013-03-13 20:27:00,
2013-03-13 13:37:00,77.9,45.7,30.03,WSW,238,12.0,12.0,32,0.00,,,0.00,Wunderground v.1.15,2013-03-13 20:37:00,
2013-03-13 13:42:00,77.6,46.2,30.03,WSW,252,12.0,12.0,33,0.00,,,0.00,Wunderground v.1.15,2013-03-13 20:42:00,
2013-03-13 13:47:00,77.7,46.3,30.03,West,264,12.0,17.0,33,0.00,,,0.00,Wunderground v.1.15,2013-03-13 20:47:00,
2013-03-13 13:57:00,77.1,48.1,30.03,West,260,12.0,16.0,36,0.00,,,0.00,Wunderground v.1.15,2013-03-13 20:57:00,
2013-03-13 14:02:00,76.7,49.2,30.03,WSW,256,11.0,16.0,38,0.00,,,0.00,Wunderground v.1.15,2013-03-13 21:02:00,
2013-03-13 14:12:00,75.4,50.7,30.03,West,278,12.0,14.0,42,0.00,,,0.00,Wunderground v.1.15,2013-03-13 21:12:00,
2013-03-13 14:22:00,74.8,51.4,30.03,West,273,11.0,12.0,44,0.00,,,0.00,Wunderground v.1.15,2013-03-13 21:22:00,
2013-03-13 14:32:00,73.9,51.2,30.03,WSW,250,11.0,11.0,45,0.00,,,0.00,Wunderground v.1.15,2013-03-13 21:32:00,
2013-03-13 14:42:00,74.2,50.9,30.03,WSW,245,10.0,11.0,44,0.00,,,0.00,Wunderground v.1.15,2013-03-13 21:42:00,
2013-03-13 14:47:00,73.7,51.0,30.03,West,270,10.0,10.0,45,0.00,,,0.00,Wunderground v.1.15,2013-03-13 21:47:00,
2013-03-13 14:57:00,73.7,50.4,30.03,West,280,8.0,8.0,44,0.00,,,0.00,Wunderground v.1.15,2013-03-13 21:57:00,
2013-03-13 15:02:00,73.7,51.6,30.03,West,276,7.0,11.0,46,0.00,,,0.00,Wunderground v.1.15,2013-03-13 22:02:00,
2013-03-13 15:07:00,73.5,50.9,30.03,West,269,7.0,11.0,45,0.00,,,0.00,Wunderground v.1.15,2013-03-13 22:07:00,
2013-03-13 15:17:00,73.6,50.3,30.02,WSW,249,7.0,11.0,44,0.00,,,0.00,Wunderground v.1.15,2013-03-13 22:17:00,
2013-03-13 15:27:00,73.3,51.3,30.02,West,263,9.0,9.0,46,0.00,,,0.00,Wunderground v.1.15,2013-03-13 22:27:00,
2013-03-13 15:32:00,73.7,51.0,30.02,WSW,255,7.0,11.0,45,0.00,,,0.00,Wunderground v.1.15,2013-03-13 22:32:00,
2013-03-13 15:42:00,74.0,52.5,30.02,West,279,7.0,11.0,47,0.00,,,0.00,Wunderground v.1.15,2013-03-13 22:42:00,
2013-03-13 15:52:00,73.0,51.0,30.02,WSW,249,8.0,11.0,46,0.00,,,0.00,Wunderground v.1.15,2013-03-13 22:52:00,
2013-03-13 15:57:00,72.7,51.3,30.01,WSW,238,8.0,11.0,47,0.00,,,0.00,Wunderground v.1.15,2013-03-13 22:57:00,
2013-03-13 16:07:00,72.5,52.8,30.01,West,260,8.0,8.0,50,0.00,,,0.00,Wunderground v.1.15,2013-03-13 23:07:00,
2013-03-13 16:12:00,72.9,53.2,30.01,SW,235,6.0,11.0,50,0.00,,,0.00,Wunderground v.1.15,2013-03-13 23:12:00,
2013-03-13 16:22:00,73.5,52.0,30.00,West,269,8.0,11.0,47,0.00,,,0.00,Wunderground v.1.15,2013-03-13 23:22:00,
2013-03-13 16:27:00,73.1,52.8,30.00,WSW,243,9.0,9.0,49,0.00,,,0.00,Wunderground v.1.15,2013-03-13 23:27:00,
2013-03-13 16:37:00,72.5,53.3,30.00,WSW,256,7.0,7.0,51,0.00,,,0.00,Wunderground v.1.15,2013-03-13 23:37:00,
2013-03-13 16:42:00,72.5,53.3,30.00,West,260,7.0,11.0,51,0.00,,,0.00,Wunderground v.1.15,2013-03-13 23:42:00,
2013-03-13 16:52:00,71.8,53.2,30.00,West,259,7.0,11.0,52,0.00,,,0.00,Wunderground v.1.15,2013-03-13 23:52:00,
2013-03-13 17:02:00,71.6,53.0,30.00,West,271,7.0,11.0,52,0.00,,,0.00,Wunderground v.1.15,2013-03-14 00:02:00,
2013-03-13 17:07:00,71.4,53.9,30.00,West,270,7.0,11.0,54,0.00,,,0.00,Wunderground v.1.15,2013-03-14 00:07:00,
2013-03-13 17:16:00,71.3,53.8,30.01,SW,229,6.0,11.0,54,0.00,,,0.00,Wunderground v.1.15,2013-03-14 00:16:00,
2013-03-13 17:22:00,71.2,53.7,30.01,WSW,254,6.0,11.0,54,0.00,,,0.00,Wunderground v.1.15,2013-03-14 00:22:00,
2013-03-13 17:32:00,70.6,52.6,30.00,West,264,6.0,11.0,53,0.00,,,0.00,Wunderground v.1.15,2013-03-14 00:32:00,
2013-03-13 17:42:00,70.1,52.2,30.01,WSW,245,7.0,11.0,53,0.00,,,0.00,Wunderground v.1.15,2013-03-14 00:42:00,
2013-03-13 17:47:00,69.7,52.3,30.01,WSW,246,7.0,7.0,54,0.00,,,0.00,Wunderground v.1.15,2013-03-14 00:47:00,
2013-03-13 17:57:00,69.6,53.2,30.01,WSW,257,5.0,11.0,56,0.00,,,0.00,Wunderground v.1.15,2013-03-14 00:57:00,
2013-03-13 18:02:00,69.2,53.3,30.01,SSW,212,6.0,11.0,57,0.00,,,0.00,Wunderground v.1.15,2013-03-14 01:02:00,
2013-03-13 18:12:00,68.6,53.7,30.01,SSW,198,7.0,11.0,59,0.00,,,0.00,Wunderground v.1.15,2013-03-14 01:12:00,
2013-03-13 18:22:00,67.4,53.0,30.01,WSW,249,8.0,9.0,60,0.00,,,0.00,Wunderground v.1.15,2013-03-14 01:22:00,
2013-03-13 18:31:00,66.0,53.0,30.01,SW,226,7.0,11.0,63,0.00,,,0.00,Wunderground v.1.15,2013-03-14 01:31:00,
2013-03-13 18:37:00,65.5,53.4,30.01,SW,217,7.0,11.0,65,0.00,,,0.00,Wunderground v.1.15,2013-03-14 01:37:00,
2013-03-13 18:46:00,64.3,53.1,30.01,SW,224,6.0,6.0,67,0.00,,,0.00,Wunderground v.1.15,2013-03-14 01:46:00,
2013-03-13 18:52:00,63.6,53.2,30.02,West,263,5.0,11.0,69,0.00,,,0.00,Wunderground v.1.15,2013-03-14 01:52:00,
2013-03-13 19:02:00,62.1,53.3,30.03,WSW,250,6.0,11.0,73,0.00,,,0.00,Wunderground v.1.15,2013-03-14 02:02:00,
2013-03-13 19:11:00,61.1,53.1,30.03,SW,224,5.0,11.0,75,0.00,,,0.00,Wunderground v.1.15,2013-03-14 02:11:00,
2013-03-13 19:17:00,60.5,53.3,30.03,SSW,207,5.0,11.0,77,0.00,,,0.00,Wunderground v.1.15,2013-03-14 02:17:00,
2013-03-13 19:26:00,59.5,53.3,30.03,SW,215,5.0,5.0,80,0.00,,,0.00,Wunderground v.1.15,2013-03-14 02:26:00,
2013-03-13 19:32:00,59.2,53.4,30.03,SW,226,4.0,11.0,81,0.00,,,0.00,Wunderground v.1.15,2013-03-14 02:32:00,
2013-03-13 19:42:00,58.2,52.7,30.03,SSE,163,4.0,11.0,82,0.00,,,0.00,Wunderground v.1.15,2013-03-14 02:42:00,
2013-03-13 19:52:00,57.2,52.7,30.04,SSW,204,4.0,6.0,85,0.00,,,0.00,Wunderground v.1.15,2013-03-14 02:52:00,
2013-03-13 20:01:00,56.4,52.3,30.05,South,187,4.0,11.0,86,0.00,,,0.00,Wunderground v.1.15,2013-03-14 03:01:00,
2013-03-13 20:12:00,55.8,52.3,30.05,South,188,3.0,11.0,88,0.00,,,0.00,Wunderground v.1.15,2013-03-14 03:12:00,
2013-03-13 20:21:00,55.6,52.4,30.05,WSW,249,2.0,11.0,89,0.00,,,0.00,Wunderground v.1.15,2013-03-14 03:21:00,
2013-03-13 20:32:00,55.6,52.7,30.05,West,263,2.0,11.0,90,0.00,,,0.00,Wunderground v.1.15,2013-03-14 03:32:00,
2013-03-13 20:42:00,54.8,51.3,30.06,South,188,1.0,11.0,88,0.00,,,0.00,Wunderground v.1.15,2013-03-14 03:42:00,
2013-03-13 20:51:00,53.9,51.0,30.06,WSW,252,2.0,11.0,90,0.00,,,0.00,Wunderground v.1.15,2013-03-14 03:51:00,
2013-03-13 20:57:00,53.7,50.8,30.06,SW,215,3.0,11.0,90,0.00,,,0.00,Wunderground v.1.15,2013-03-14 03:57:00,
2013-03-13 21:02:00,53.5,50.9,30.06,WSW,243,3.0,11.0,91,0.00,,,0.00,Wunderground v.1.15,2013-03-14 04:02:00,
2013-03-13 21:11:00,53.0,50.4,30.07,SE,135,1.0,11.0,91,0.00,,,0.00,Wunderground v.1.15,2013-03-14 04:11:00,
2013-03-13 21:16:00,52.8,50.5,30.07,ESE,123,1.0,1.0,92,0.00,,,0.00,Wunderground v.1.15,2013-03-14 04:16:00,
2013-03-13 21:21:00,52.8,50.5,30.07,SE,126,1.0,11.0,92,0.00,,,0.00,Wunderground v.1.15,2013-03-14 04:21:00,
2013-03-13 21:26:00,52.9,50.9,30.07,ESE,113,0.0,11.0,93,0.00,,,0.00,Wunderground v.1.15,2013-03-14 04:26:00,
2013-03-13 21:31:00,53.0,51.0,30.07,East,84,1.0,11.0,93,0.00,,,0.00,Wunderground v.1.15,2013-03-14 04:31:00,
2013-03-13 21:36:00,53.2,51.2,30.07,ENE,68,1.0,11.0,93,0.00,,,0.00,Wunderground v.1.15,2013-03-14 04:36:00,
2013-03-13 21:47:00,53.7,51.7,30.08,ENE,69,2.0,11.0,93,0.00,,,0.00,Wunderground v.1.15,2013-03-14 04:47:00,
2013-03-13 21:57:00,53.6,51.0,30.08,East,96,2.0,2.0,91,0.00,,,0.00,Wunderground v.1.15,2013-03-14 04:57:00,
2013-03-13 22:06:00,52.9,50.3,30.08,East,96,1.0,11.0,91,0.00,,,0.00,Wunderground v.1.15,2013-03-14 05:06:00,
2013-03-13 22:16:00,52.9,50.9,30.08,NNE,17,1.0,11.0,93,0.00,,,0.00,Wunderground v.1.15,2013-03-14 05:16:00,
2013-03-13 22:31:00,54.5,52.2,30.08,NE,46,4.0,11.0,92,0.00,,,0.00,Wunderground v.1.15,2013-03-14 05:31:00,
2013-03-13 22:36:00,54.6,52.3,30.08,NE,53,4.0,11.0,92,0.00,,,0.00,Wunderground v.1.15,2013-03-14 05:36:00,
2013-03-13 22:46:00,54.5,51.9,30.08,NE,36,4.0,4.0,91,0.00,,,0.00,Wunderground v.1.15,2013-03-14 05:46:00,
2013-03-13 22:51:00,54.7,52.4,30.08,NE,51,4.0,5.0,92,0.00,,,0.00,Wunderground v.1.15,2013-03-14 05:51:00,
2013-03-13 23:01:00,54.8,51.9,30.07,NE,51,3.0,11.0,90,0.00,,,0.00,Wunderground v.1.15,2013-03-14 06:01:00,
2013-03-13 23:06:00,54.6,52.0,30.07,NE,41,2.0,11.0,91,0.00,,,0.00,Wunderground v.1.15,2013-03-14 06:06:00,
2013-03-13 23:16:00,54.9,52.0,30.08,NE,45,4.0,11.0,90,0.00,,,0.00,Wunderground v.1.15,2013-03-14 06:16:00,
2013-03-13 23:21:00,55.0,52.1,30.08,NE,43,4.0,11.0,90,0.00,,,0.00,Wunderground v.1.15,2013-03-14 06:21:00,
2013-03-13 23:31:00,53.6,50.1,30.07,ENE,58,2.0,11.0,88,0.00,,,0.00,Wunderground v.1.15,2013-03-14 06:31:00,
2013-03-13 23:36:00,54.1,51.2,30.07,ENE,58,1.0,11.0,90,0.00,,,0.00,Wunderground v.1.15,2013-03-14 06:36:00,
2013-03-13 23:41:00,53.8,50.9,30.07,NE,44,1.0,11.0,90,0.00,,,0.00,Wunderground v.1.15,2013-03-14 06:41:00,
2013-03-13 23:51:00,55.0,51.8,30.07,NE,37,3.0,11.0,89,0.00,,,0.00,Wunderground v.1.15,2013-03-14 06:51:00,
2013-03-13 23:56:00,54.1,50.3,30.07,ESE,117,3.0,11.0,87,0.00,,,0.00,Wunderground v.1.15,2013-03-14 06:56:00,